| time (UTC) | temp C | wind direction | speed KPH | gust KPH | rain 1hr cm | rain 24hr cm | rain mn cm | humidity % | barometer mb |
| 20260505041508 | 16 | 0.0 | 0.0 | 0.00 | 0.00 | 0.00 | 70 | 1009.3 | |
| 20260505041010 | 17 | 0.0 | 0.0 | 0.00 | 0.00 | 0.00 | 69 | 1009.4 | |
| 20260505040505 | 17 | 0.0 | 0.0 | 0.00 | 0.00 | 0.00 | 68 | 1009.4 | |
| 20260505040023 | 17 | 0.0 | 0.0 | 0.00 | 0.00 | 0.00 | 68 | 1009.3 | |
| 20260505035503 | 17 | 0.0 | 0.0 | 0.00 | 0.00 | 0.00 | 68 | 1009.2 | |
| 20260505035007 | 17 | 0.0 | 0.0 | 0.00 | 0.00 | 0.00 | 67 | 1009.2 | |
| 20260505034523 | 17 | 0.0 | 0.0 | 0.00 | 0.00 | 0.00 | 67 | 1009.2 | |
| 20260505034003 | 17 | 0.0 | 0.0 | 0.00 | 0.00 | 0.00 | 67 | 1009.1 | |
| 20260505033504 | 17 | 0.0 | 0.0 | 0.00 | 0.00 | 0.00 | 67 | 1009.1 | |
| 20260505033013 | 17 | 0.0 | 0.0 | 0.00 | 0.00 | 0.00 | 66 | 1009.1 | |
| 20260505032501 | 17 | 0.0 | 0.0 | 0.00 | 0.00 | 0.00 | 67 | 1009.0 | |
| 20260505032002 | 17 | 0.0 | 0.0 | 0.00 | 0.00 | 0.00 | 67 | 1008.9 | |
| 20260505031513 | 17 | 0.0 | 0.0 | 0.00 | 0.00 | 0.00 | 66 | 1009.0 | |
| 20260505031006 | 17 | 0.0 | 0.0 | 0.00 | 0.00 | 0.00 | 66 | 1008.9 | |
| 20260505030503 | 17 | 0.0 | 0.0 | 0.00 | 0.00 | 0.00 | 66 | 1008.9 | |
| 20260505030013 | 17 | 0.0 | 0.0 | 0.00 | 0.00 | 0.00 | 65 | 1008.9 | |
| 20260505025510 | 17 | 0.0 | 0.0 | 0.00 | 0.00 | 0.00 | 65 | 1008.9 | |
| 20260505025006 | 18 | 0.0 | 0.0 | 0.00 | 0.00 | 0.00 | 64 | 1008.8 | |
| 20260505024512 | 18 | 0.0 | 0.0 | 0.00 | 0.00 | 0.00 | 64 | 1008.8 | |
| 20260505024007 | 18 | 0.0 | 0.0 | 0.00 | 0.00 | 0.00 | 63 | 1008.8 | |
| 20260505023508 | 18 | 0.0 | 0.0 | 0.00 | 0.00 | 0.00 | 62 | 1008.7 | |
| 20260505023027 | 18 | 0.0 | 0.0 | 0.00 | 0.00 | 0.00 | 62 | 1008.7 | |
| 20260505022503 | 18 | 0.0 | 0.0 | 0.00 | 0.00 | 0.00 | 62 | 1008.7 | |
| 20260505022002 | 18 | 0.0 | 0.0 | 0.00 | 0.00 | 0.00 | 62 | 1008.8 | |
| 20260505021515 | 18 | 0.0 | 0.0 | 0.00 | 0.00 | 0.00 | 61 | 1008.8 | |
| 20260505021006 | 18 | 0.0 | 0.0 | 0.00 | 0.00 | 0.00 | 61 | 1008.8 | |
| 20260505020503 | 18 | 0.0 | 0.0 | 0.00 | 0.00 | 0.00 | 61 | 1008.8 | |
| 20260505020016 | 18 | 0.0 | 0.0 | 0.00 | 0.00 | 0.00 | 60 | 1008.7 | |
| 20260505015507 | 18 | 0.0 | 0.0 | 0.00 | 0.00 | 0.00 | 59 | 1008.8 | |
| 20260505015004 | 18 | 0.0 | 0.0 | 0.00 | 0.00 | 0.00 | 59 | 1008.7 | |
| 20260505014521 | 19 | 0.0 | 0.0 | 0.00 | 0.00 | 0.00 | 58 | 1008.8 | |
| 20260505014012 | 19 | 0.0 | 0.0 | 0.00 | 0.00 | 0.00 | 57 | 1008.7 | |
| 20260505013503 | 19 | 0.0 | 0.0 | 0.00 | 0.00 | 0.00 | 57 | 1008.6 | |
| 20260505013016 | 19 | 0.0 | 0.0 | 0.00 | 0.00 | 0.00 | 57 | 1008.6 | |
| 20260505012507 | 20 | 0.0 | 0.0 | 0.00 | 0.00 | 0.00 | 56 | 1008.5 | |
| 20260505012007 | 20 | 0.0 | 0.0 | 0.00 | 0.00 | 0.00 | 55 | 1008.6 | |
| 20260505011514 | 20 | 0.0 | 0.0 | 0.00 | 0.00 | 0.00 | 54 | 1008.6 | |
| 20260505011006 | 20 | 0.0 | 0.0 | 0.00 | 0.00 | 0.00 | 53 | 1008.5 | |
| 20260505010505 | 20 | 0.0 | 0.0 | 0.00 | 0.00 | 0.00 | 53 | 1008.5 | |
| 20260505010009 | 20 | 0.0 | 0.0 | 0.00 | 0.00 | 0.00 | 53 | 1008.4 | |
| 20260505005505 | 21 | 0.0 | 0.0 | 0.00 | 0.00 | 0.00 | 52 | 1008.3 | |
| 20260505005008 | 21 | 0.0 | 0.0 | 0.00 | 0.00 | 0.00 | 51 | 1008.4 | |
| 20260505004506 | 21 | 0.0 | 0.0 | 0.00 | 0.00 | 0.00 | 51 | 1008.4 | |
| 20260505004003 | 21 | 0.0 | 0.0 | 0.00 | 0.00 | 0.00 | 50 | 1008.4 | |
| 20260505003511 | 21 | 0.0 | 0.0 | 0.00 | 0.00 | 0.00 | 49 | 1008.5 | |
| 20260505003006 | 21 | 0.0 | 0.0 | 0.00 | 0.00 | 0.00 | 49 | 1008.5 | |
| 20260505002505 | 22 | 0.0 | 0.0 | 0.00 | 0.00 | 0.00 | 48 | 1008.5 | |
| 20260505002004 | 22 | 0.0 | 0.0 | 0.00 | 0.00 | 0.00 | 47 | 1008.6 | |
| 20260505001506 | 22 | 0.0 | 0.0 | 0.00 | 0.00 | 0.00 | 47 | 1008.6 | |
| 20260505001004 | 22 | 0.0 | 0.0 | 0.00 | 0.00 | 0.00 | 48 | 1008.6 | |
| 20260505000504 | 22 | 0.0 | 0.0 | 0.00 | 0.00 | 0.00 | 47 | 1008.6 | |
| 20260505000016 | 22 | 0.0 | 0.0 | 0.00 | 0.00 | 0.00 | 46 | 1008.6 | |
| 20260504235504 | 22 | 0.0 | 0.0 | 0.00 | 0.00 | 0.00 | 46 | 1008.4 | |
| 20260504235004 | 22 | 0.0 | 0.0 | 0.00 | 0.00 | 0.00 | 46 | 1008.5 | |
| 20260504234516 | 22 | 0.0 | 0.0 | 0.00 | 0.00 | 0.00 | 45 | 1008.5 | |
| 20260504234006 | 22 | 0.0 | 0.0 | 0.00 | 0.00 | 0.00 | 44 | 1008.6 | |
| 20260504233504 | 22 | 0.0 | 0.0 | 0.00 | 0.00 | 0.00 | 44 | 1008.6 | |
| 20260504233013 | 22 | 0.0 | 0.0 | 0.00 | 0.00 | 0.00 | 43 | 1008.6 | |
| 20260504232508 | 22 | 0.0 | 0.0 | 0.00 | 0.00 | 0.00 | 44 | 1008.6 | |
| 20260504232006 | 22 | 0.0 | 0.0 | 0.00 | 0.00 | 0.00 | 44 | 1008.7 | |
| 20260504231510 | 23 | 0.0 | 0.0 | 0.00 | 0.00 | 0.00 | 46 | 1008.6 | |
| 20260504231004 | 23 | 0.0 | 0.0 | 0.00 | 0.00 | 0.00 | 47 | 1008.7 | |
| 20260504230504 | 23 | 0.0 | 0.0 | 0.00 | 0.00 | 0.00 | 47 | 1008.7 | |
| 20260504230006 | 23 | 0.0 | 0.0 | 0.00 | 0.00 | 0.00 | 46 | 1008.8 | |
| 20260504225502 | 23 | 0.0 | 0.0 | 0.00 | 0.00 | 0.00 | 45 | 1008.8 | |
| 20260504225009 | 23 | 0.0 | 0.0 | 0.00 | 0.00 | 0.00 | 44 | 1008.8 | |
| 20260504224513 | 23 | 0.0 | 0.0 | 0.00 | 0.00 | 0.00 | 44 | 1008.8 | |
| 20260504224002 | 23 | 0.0 | 0.0 | 0.00 | 0.00 | 0.00 | 46 | 1008.7 | |
| 20260504223506 | 23 | 0.0 | 0.0 | 0.00 | 0.00 | 0.00 | 45 | 1008.8 | |
| 20260504223015 | 23 | 0.0 | 0.0 | 0.00 | 0.00 | 0.00 | 44 | 1008.8 | |
| 20260504222504 | 23 | 0.0 | 0.0 | 0.00 | 0.00 | 0.00 | 44 | 1008.8 | |
| 20260504222006 | 23 | 0.0 | 0.0 | 0.00 | 0.00 | 0.00 | 45 | 1008.8 | |
| 20260504221520 | 23 | 0.0 | 0.0 | 0.00 | 0.00 | 0.00 | 46 | 1008.8 | |
| 20260504221007 | 23 | 0.0 | 0.0 | 0.00 | 0.00 | 0.00 | 45 | 1008.9 | |
| 20260504220505 | 23 | 0.0 | 0.0 | 0.00 | 0.00 | 0.00 | 49 | 1008.9 | |
| 20260504220025 | 23 | 0.0 | 0.0 | 0.00 | 0.00 | 0.00 | 48 | 1008.9 | |
| 20260504215508 | 23 | 0.0 | 0.0 | 0.00 | 0.00 | 0.00 | 50 | 1008.9 | |
| 20260504215004 | 23 | 0.0 | 0.0 | 0.00 | 0.00 | 0.00 | 50 | 1008.9 | |
| 20260504214517 | 23 | 0.0 | 0.0 | 0.00 | 0.00 | 0.00 | 49 | 1009.0 | |
| 20260504214005 | 23 | 0.0 | 0.0 | 0.00 | 0.00 | 0.00 | 47 | 1009.0 | |
| 20260504213502 | 24 | 0.0 | 0.0 | 0.00 | 0.00 | 0.00 | 48 | 1008.9 | |
| 20260504213012 | 24 | 0.0 | 0.0 | 0.00 | 0.00 | 0.00 | 49 | 1008.9 | |
| 20260504212506 | 23 | 0.0 | 0.0 | 0.00 | 0.00 | 0.00 | 47 | 1008.9 | |
| 20260504212007 | 24 | 0.0 | 0.0 | 0.00 | 0.00 | 0.00 | 46 | 1008.9 | |
| 20260504211527 | 24 | 0.0 | 0.0 | 0.00 | 0.00 | 0.00 | 49 | 1009.0 | |
| 20260504211003 | 24 | 0.0 | 0.0 | 0.00 | 0.00 | 0.00 | 48 | 1009.0 | |
| 20260504210507 | 24 | 0.0 | 0.0 | 0.00 | 0.00 | 0.00 | 49 | 1009.0 | |
| 20260504210025 | 23 | 0.0 | 0.0 | 0.00 | 0.00 | 0.00 | 47 | 1009.1 | |
| 20260504205503 | 23 | 0.0 | 0.0 | 0.00 | 0.00 | 0.00 | 50 | 1009.1 | |
| 20260504205007 | 23 | 0.0 | 0.0 | 0.00 | 0.00 | 0.00 | 51 | 1009.2 | |
| 20260504204523 | 23 | 0.0 | 0.0 | 0.00 | 0.00 | 0.00 | 56 | 1009.3 | |
| 20260504204008 | 22 | 0.0 | 0.0 | 0.00 | 0.00 | 0.00 | 55 | 1009.4 | |
| 20260504203508 | 22 | 0.0 | 0.0 | 0.00 | 0.00 | 0.00 | 55 | 1009.5 | |
| 20260504203012 | 22 | 0.0 | 0.0 | 0.00 | 0.00 | 0.00 | 55 | 1009.6 | |
| 20260504202503 | 22 | 0.0 | 0.0 | 0.00 | 0.00 | 0.00 | 54 | 1009.7 | |
| 20260504202002 | 22 | 0.0 | 0.0 | 0.00 | 0.00 | 0.00 | 55 | 1009.8 | |
| 20260504201517 | 22 | 0.0 | 0.0 | 0.00 | 0.00 | 0.00 | 58 | 1009.8 | |
| 20260504201004 | 22 | 0.0 | 0.0 | 0.00 | 0.00 | 0.00 | 56 | 1009.9 | |
| 20260504200508 | 22 | 0.0 | 0.0 | 0.00 | 0.00 | 0.00 | 55 | 1009.9 | |
| 20260504200013 | 22 | 0.0 | 0.0 | 0.00 | 0.00 | 0.00 | 55 | 1010.0 | |
| 20260504195508 | 22 | 0.0 | 0.0 | 0.00 | 0.00 | 0.00 | 56 | 1010.0 | |
| 20260504195007 | 22 | 0.0 | 0.0 | 0.00 | 0.00 | 0.00 | 55 | 1010.0 | |
| 20260504194511 | 22 | 0.0 | 0.0 | 0.00 | 0.00 | 0.00 | 56 | 1010.0 | |
| 20260504194003 | 22 | 0.0 | 0.0 | 0.00 | 0.00 | 0.00 | 55 | 1010.1 | |
| 20260504193508 | 22 | 0.0 | 0.0 | 0.00 | 0.00 | 0.00 | 56 | 1010.2 | |
| 20260504193026 | 22 | 0.0 | 0.0 | 0.00 | 0.00 | 0.00 | 57 | 1010.2 | |
| 20260504192507 | 21 | 0.0 | 0.0 | 0.00 | 0.00 | 0.00 | 56 | 1010.1 | |
| 20260504192006 | 21 | 0.0 | 0.0 | 0.00 | 0.00 | 0.00 | 56 | 1010.1 | |
| 20260504191518 | 21 | 0.0 | 0.0 | 0.00 | 0.00 | 0.00 | 58 | 1010.0 | |
| 20260504191006 | 21 | 0.0 | 0.0 | 0.00 | 0.00 | 0.00 | 58 | 1010.1 | |
| 20260504190507 | 21 | 0.0 | 0.0 | 0.00 | 0.00 | 0.00 | 58 | 1010.2 | |
| 20260504190020 | 21 | 0.0 | 0.0 | 0.00 | 0.00 | 0.00 | 59 | 1010.3 | |
| 20260504185512 | 20 | 0.0 | 0.0 | 0.00 | 0.00 | 0.00 | 60 | 1010.4 | |
| 20260504185006 | 20 | 0.0 | 0.0 | 0.00 | 0.00 | 0.00 | 59 | 1010.3 | |
| 20260504184520 | 20 | 0.0 | 0.0 | 0.00 | 0.00 | 0.00 | 59 | 1010.4 | |
| 20260504184009 | 19 | 0.0 | 0.0 | 0.00 | 0.00 | 0.00 | 60 | 1010.5 | |
| 20260504183512 | 20 | 0.0 | 0.0 | 0.00 | 0.00 | 0.00 | 61 | 1010.6 | |
| 20260504183017 | 19 | 0.0 | 0.0 | 0.00 | 0.00 | 0.00 | 60 | 1010.6 | |
| 20260504182506 | 18 | 0.0 | 0.0 | 0.00 | 0.00 | 0.00 | 61 | 1010.7 | |
| 20260504182009 | 18 | 0.0 | 0.0 | 0.00 | 0.00 | 0.00 | 61 | 1010.8 | |
| 20260504181523 | 18 | 0.0 | 0.0 | 0.00 | 0.00 | 0.00 | 62 | 1010.9 | |
| 20260504181011 | 18 | 0.0 | 0.0 | 0.00 | 0.00 | 0.00 | 63 | 1011.0 | |
| 20260504180506 | 18 | 0.0 | 0.0 | 0.00 | 0.00 | 0.00 | 64 | 1011.0 | |
| 20260504180016 | 17 | 0.0 | 0.0 | 0.00 | 0.00 | 0.00 | 65 | 1011.1 | |
| 20260504175506 | 18 | 0.0 | 0.0 | 0.00 | 0.00 | 0.00 | 63 | 1010.9 | |
| 20260504175006 | 18 | 0.0 | 0.0 | 0.00 | 0.00 | 0.00 | 61 | 1011.5 | |
| 20260504174522 | 18 | 0.0 | 0.0 | 0.00 | 0.00 | 0.00 | 60 | 1012.0 | |
| 20260504174004 | 18 | 0.0 | 0.0 | 0.00 | 0.00 | 0.00 | 59 | 1011.9 | |
| 20260504173507 | 19 | 0.0 | 0.0 | 0.00 | 0.00 | 0.00 | 57 | 1011.7 | |
| 20260504173023 | 20 | 0.0 | 0.0 | 0.00 | 0.00 | 0.00 | 56 | 1011.5 | |
| 20260504172507 | 20 | 0.0 | 0.0 | 0.00 | 0.00 | 0.00 | 55 | 1011.3 | |
| 20260504172008 | 20 | 0.0 | 0.0 | 0.00 | 0.00 | 0.00 | 55 | 1011.1 | |
| 20260504171523 | 20 | 0.0 | 0.0 | 0.00 | 0.00 | 0.00 | 55 | 1011.1 | |
| 20260504171014 | 20 | 0.0 | 0.0 | 0.00 | 0.00 | 0.00 | 60 | 1011.1 | |
| 20260504170509 | 20 | 0.0 | 0.0 | 0.00 | 0.00 | 0.00 | 57 | 1011.0 | |
| 20260504151003 | 15 | 0.0 | 0.0 | 0.00 | 0.00 | 0.00 | 72 | 1012.5 | |
| 20260504150504 | 14 | 0.0 | 0.0 | 0.00 | 0.00 | 0.00 | 73 | 1012.6 | |
| 20260504141002 | 12 | 0.0 | 0.0 | 0.00 | 0.00 | 0.00 | 80 | 1013.3 | |
| 20260504140507 | 12 | 0.0 | 0.0 | 0.00 | 0.00 | 0.00 | 81 | 1013.4 | |
| 20260504130506 | 10 | 0.0 | 0.0 | 0.00 | 0.00 | 0.00 | 84 | 1013.8 | |
| 20260504110504 | 8 | 0.0 | 0.0 | 0.00 | 0.00 | 0.00 | 73 | 1012.7 | |
| 20260504100507 | 8 | 0.0 | 0.0 | 0.00 | 0.00 | 0.00 | 73 | 1012.7 | |
| 20260504082008 | 8 | 0.0 | 0.0 | 0.00 | 0.00 | 0.00 | 78 | 1013.3 | |
| 20260504081527 | 8 | 0.0 | 0.0 | 0.00 | 0.00 | 0.00 | 78 | 1013.3 | |
| 20260504081005 | 8 | 0.0 | 0.0 | 0.00 | 0.00 | 0.00 | 76 | 1013.3 | |
| 20260504080507 | 8 | 0.0 | 0.0 | 0.00 | 0.00 | 0.00 | 74 | 1013.3 | |
| 20260504050505 | 10 | 0.0 | 0.0 | 0.00 | 0.00 | 0.00 | 68 | 1015.0 | |
| 20260504050022 | 10 | 0.0 | 0.0 | 0.00 | 0.00 | 0.00 | 69 | 1015.0 | |
| 20260504045502 | 10 | 0.0 | 0.0 | 0.00 | 0.00 | 0.00 | 68 | 1015.0 | |
| 20260504045002 | 10 | 0.0 | 0.0 | 0.00 | 0.00 | 0.00 | 68 | 1015.1 | |
| 20260504044506 | 10 | 0.0 | 0.0 | 0.00 | 0.00 | 0.00 | 70 | 1015.0 | |
| 20260504044003 | 10 | 0.0 | 0.0 | 0.00 | 0.00 | 0.00 | 69 | 1014.9 | |
| 20260504043504 | 10 | 0.0 | 0.0 | 0.00 | 0.00 | 0.00 | 70 | 1014.9 | |
| 20260504043012 | 10 | 0.0 | 0.0 | 0.00 | 0.00 | 0.00 | 69 | 1015.0 | |
| 20260504042505 | 10 | 0.0 | 0.0 | 0.00 | 0.00 | 0.00 | 74 | 1014.9 | |
| 20260504042004 | 10 | 0.0 | 0.0 | 0.00 | 0.00 | 0.00 | 74 | 1014.7 |